This is the latest recevied weather packets stored in our database for station/object KR4ELZ. If no packets are shown the sender has not sent any weather packets the latest 10 day(s).
| Time | Temp. | Humidity | Pressure | Rain* | Wind** | Luminosity | Snow |
|---|---|---|---|---|---|---|---|
| 1777644472 | 15° C | 73% | 1016.4 hPa | 0 mm | - | 178 W/m² | - |
| 1777644169 | 14.44° C | 72% | 1016.5 hPa | 0 mm | - | 239 W/m² | - |
| 1777643865 | 14.44° C | 72% | 1016.4 hPa | 0 mm | - | 157 W/m² | - |
| 1777643563 | 14.44° C | 74% | 1016.6 hPa | 0 mm | - | 138 W/m² | - |
| 1777643259 | 14.44° C | 74% | 1016.4 hPa | 0 mm | - | 112 W/m² | - |
| 1777642956 | 14.44° C | 74% | 1016.5 hPa | 0 mm | - | 138 W/m² | - |
| 1777642652 | 14.44° C | 72% | 1016.4 hPa | 0 mm | - | 127 W/m² | - |
| 1777642349 | 13.89° C | 75% | 1016.4 hPa | 0 mm | - | 204 W/m² | - |
| 1777642046 | 13.33° C | 78% | 1016.5 hPa | 0 mm | - | 206 W/m² | - |
| 1777641742 | 12.78° C | 78% | 1016.4 hPa | 0 mm | - | 87 W/m² | - |
| 1777641437 | 12.78° C | 79% | 1016.6 hPa | 0 mm | - | 83 W/m² | - |
| 1777641133 | 12.22° C | 80% | 1016.7 hPa | 0 mm | - | 78 W/m² | - |
| 1777640829 | 12.22° C | 81% | 1016.7 hPa | 0 mm | - | 70 W/m² | - |
| 1777640526 | 12.22° C | 84% | 1016.4 hPa | 0 mm | - | 100 W/m² | - |
| 1777640223 | 11.67° C | 84% | 1016.5 hPa | 0 mm | - | 78 W/m² | - |
| 1777639919 | 11.11° C | 85% | 1016.4 hPa | 0 mm | - | 77 W/m² | - |
| 1777639616 | 10.56° C | 86% | 1016.1 hPa | 0 mm | - | 69 W/m² | - |
| 1777639313 | 10.56° C | 88% | 1016.3 hPa | 0 mm | - | 61 W/m² | - |
| 1777639009 | 10° C | 91% | 1016 hPa | 0 mm | - | 61 W/m² | - |
| 1777638705 | 10° C | 92% | 1016.1 hPa | 0 mm | - | 54 W/m² | - |
| 1777638402 | 10° C | 94% | 1016 hPa | 0 mm | - | 47 W/m² | - |
| 1777638098 | 9.44° C | 95% | 1015.9 hPa | 0 mm | - | 40 W/m² | - |
| 1777637795 | 9.44° C | 96% | 1015.8 hPa | 0 mm | - | 27 W/m² | - |
| 1777637491 | 9.44° C | 96% | 1015.8 hPa | 0 mm | - | 27 W/m² | - |
| 1777637188 | 9.44° C | 96% | 1015.6 hPa | 0 mm | - | 29 W/m² | - |
* Rain latest hour (hover to see other rain measurements)
** Current wind speed in m/s (hover to see current wind gust speed)